Lid_Strength_Index
-1 -1 -1 -1 -0 1 2 3 4 4 3 3 2 0 0 1 1 3 7 8 9 12 13 10 9 12 13 13 15 14 14 15 16 18 18 18 19 16 16 16 16 17 19 20 19 20 19 12 13 15 13 12 11 10
-1 -1 -1 -1 -0 0 1 2 3 3 3 3 3 1 1 1 2 2 9 6 8 11 13 8 8 9 10 10 12 14 13 15 14 17 17 17 17 17 16 18 15 17 15 16 16 16 12 12 12 11 11 11 11 10
-1 -1 -1 -1 -1 -0 0 1 3 3 3 2 3 2 1 2 2 3 8 7 8 11 11 10 10 8 8 9 9 13 13 12 13 13 15 17 18 16 18 17 17 15 13 14 15 13 13 12 12 11 11 11 10 10
-1 -1 -1 -1 -1 -0 1 0 2 3 3 2 3 3 1 2 3 3 7 8 8 11 15 14 8 9 7 7 9 10 10 11 12 14 16 17 19 16 18 16 17 15 15 15 15 14 13 12 11 11 11 11 10 10
-1 -1 -1 -1 -1 -0 1 1 -0 1 3 3 2 2 2 2 3 3 7 7 7 12 16 15 10 8 8 7 8 9 10 12 14 15 16 17 16 16 17 17 16 14 15 16 16 13 14 13 12 11 11 10 10 10
-1 -1 -1 -1 -1 -1 0 1 0 0 3 3 3 2 2 2 3 6 9 7 8 9 13 17 12 11 10 9 9 10 11 12 13 15 16 16 14 16 20 19 14 13 11 11 13 13 12 12 13 11 11 10 10 10
-1 -1 -1 -1 -1 -1 -0 0 -0 0 1 3 4 3 2 2 4 7 10 8 5 7 12 16 15 13 11 11 12 12 11 12 13 14 16 16 15 15 20 18 14 13 13 12 11 14 14 13 12 12 11 11 9 10
-1 -1 -1 -1 -1 -1 -1 -0 -0 -0 0 3 3 3 3 3 4 7 7 5 5 9 10 16 17 15 12 15 15 12 14 13 14 14 15 16 15 16 19 13 13 12 12 13 13 13 12 13 13 12 11 11 11 11
-0 -1 -1 -1 -1 -1 -1 -0 -0 -0 -0 2 3 3 3 4 8 7 4 5 6 9 15 17 17 19 13 14 14 14 13 16 15 16 16 15 17 19 14 13 13 13 13 13 13 12 13 13 12 12 12 12 11 11
-0 -0 -0 -0 -0 -1 -1 -0 -0 -0 -0 0 2 5 8 6 3 4 7 9 10 11 13 17 15 17 14 15 16 15 14 15 19 16 16 18 19 14 12 12 12 12 12 12 14 14 14 14 13 12 13 11 10 10
-0 -0 -0 -0 -0 -0 -0 -0 -0 -0 -0 2 5 9 8 3 6 10 14 14 13 15 14 15 15 16 14 16 16 14 16 16 19 17 17 19 20 14 11 12 11 11 11 12 11 12 12 12 12 13 13 12 10 10
-0 -0 -0 -0 -0 -0 -0 -0 -0 1 2 3 5 4 5 9 12 14 14 14 14 16 13 15 15 14 14 12 14 15 17 17 19 17 20 19 16 12 12 12 12 12 12 12 11 12 12 12 12 11 11 11 10 10
-0 -0 -0 -0 -0 -0 -0 -0 -0 -0 1 2 5 9 12 12 15 15 16 15 15 14 12 13 14 14 13 12 14 15 17 18 16 19 19 17 13 13 13 13 13 13 12 12 12 12 11 11 11 11 10 10 10 11
-0 -0 -0 -0 -0 -0 -0 -0 -0 0 4 9 11 14 13 15 13 12 13 13 13 12 12 11 13 13 13 14 14 17 16 18 21 20 20 16 14 13 13 13 13 12 12 13 13 12 11 11 11 10 10 10 10 10
0 -0 -0 0 -0 -0 -0 -0 -0 3 7 10 10 13 13 11 13 12 11 11 11 10 11 12 14 14 15 15 15 17 18 20 20 18 16 14 14 14 14 14 13 13 13 13 12 12 11 11 11 10 10 10 10 9
-0 0 1 -0 -0 -0 -0 0 1 4 7 10 10 11 11 12 14 12 11 11 10 10 9 12 14 15 15 15 18 19 20 20 17 16 14 14 14 14 14 13 13 13 13 12 12 11 11 11 11 10 10 10 9 9
0 3 0 0 0 0 0 2 6 9 9 10 12 8 10 11 12 12 10 11 8 10 13 14 17 16 16 18 19 18 18 13 14 14 14 13 13 13 13 13 13 13 13 13 13 12 12 11 11 11 11 10 9 9
2 1 0 0 0 2 6 7 8 9 11 10 10 9 9 11 10 10 10 9 9 10 12 14 14 16 17 19 18 15 16 15 14 14 14 13 13 13 13 13 14 13 13 13 12 12 12 11 12 11 10 9 9 9
1 1 0 0 2 6 9 9 9 10 10 9 9 8 9 10 8 8 8 8 8 9 10 13 14 16 17 16 14 14 15 14 14 14 13 13 12 13 13 13 13 13 13 13 13 13 12 11 11 10 10 10 11 11
0 0 0 0 2 7 9 9 8 8 9 8 8 8 9 10 9 8 8 8 9 10 12 15 15 14 13 12 12 13 13 13 13 14 14 13 13 13 14 13 13 13 13 13 13 12 12 12 11 11 11 11 11 11
1 1 0 3 6 7 8 9 9 8 7 8 8 8 10 8 9 9 9 8 10 12 14 13 13 11 10 11 12 12 13 11 12 12 12 14 14 13 14 13 13 13 13 13 13 13 13 13 12 10 11 11 11 11
2 1 4 4 8 8 9 8 9 8 8 8 8 8 10 11 10 9 8 11 13 11 12 12 11 10 11 11 11 12 12 11 11 11 11 12 14 14 14 13 12 13 13 13 12 13 14 13 12 12 12 12 11 12
2 4 7 7 9 11 11 8 9 8 10 10 9 10 11 11 9 8 11 12 13 12 11 10 9 9 10 11 11 11 11 11 12 11 11 12 13 12 12 12 11 12 13 13 12 13 13 11 11 12 12 12 12 12
3 7 8 9 10 12 10 11 9 9 9 10 10 12 11 11 10 11 13 14 12 11 10 10 10 12 12 11 12 12 11 10 11 12 12 12 13 13 12 12 12 12 11 12 12 12 12 12 11 12 12 13 13 13
9 9 9 13 12 12 16 11 11 11 11 12 12 12 11 10 12 13 15 14 12 10 10 10 10 11 12 11 11 11 10 10 11 12 12 11 13 13 13 13 12 12 11 12 13 12 13 12 13 13 13 13 14 14
11 10 12 11 12 13 12 13 12 11 12 12 13 10 12 12 14 15 14 13 11 10 9 10 10 11 11 10 11 11 10 10 10 11 13 12 11 11 12 13 13 13 11 11 12 12 13 13 13 13 13 12 12 14
13 12 10 11 11 11 12 11 11 12 13 15 12 12 14 17 16 14 13 12 9 8 7 8 9 9 9 9 10 10 10 10 10 10 11 11 11 10 10 11 12 10 10 10 10 11 12 13 13 13 13 13 12 13
9 10 11 10 11 11 12 11 11 12 13 12 12 14 14 13 14 12 12 9 7 6 7 7 7 7 8 9 9 10 11 12 12 11 12 13 13 12 11 11 10 9 9 10 10 10 11 12 13 13 13 13 13 13
11 10 10 15 12 12 12 11 11 11 11 10 12 12 12 11 11 11 11 10 8 7 8 9 9 9 10 10 10 10 11 11 12 14 14 14 14 13 12 11 10 9 9 9 8 9 11 11 12 12 12 13 13 13
12 10 11 11 13 12 11 11 11 11 11 11 11 11 11 12 13 14 11 10 9 8 8 8 8 9 10 10 12 12 10 9 9 10 12 12 11 12 12 11 11 10 10 10 10 10 8 10 9 11 12 13 13 13
10 10 12 13 15 13 12 12 12 11 11 11 12 12 12 13 12 12 11 10 9 9 9 9 9 8 10 10 11 12 12 10 9 9 10 11 12 11 11 11 11 10 10 10 10 10 11 11 12 13 13 13 13 12
11 11 12 14 13 12 12 11 12 12 12 12 14 12 12 12 12 12 11 10 9 9 8 8 9 9 8 8 8 8 8 9 11 10 11 11 11 11 11 11 11 11 11 11 11 11 11 12 13 13 13 13 13 13
13 12 11 12 15 14 12 12 14 15 14 14 14 12 12 12 12 12 12 10 9 8 8 8 7 7 8 8 9 9 8 9 10 9 9 10 10 10 11 11 11 11 11 11 11 11 12 13 13 13 13 13 13 13